Regional Weather Roundup
Issued by NWS Newport/Morehead, NC

Current Version | Previous Version | Graphics & Text | Print | Product List | Glossary On
Versions: 1 2 3 4 5 6 7 8 9 10 11 12 13 14 15 16 17 18 19 20 21 22 23 24 25 26 27 28 29 30 31 32 33 34 35 36 37 38 39 40 41 42 43 44 45 46 47 48 49 50
597 ASUS42 KMHX 071213 RWRMHX WEATHER ROUNDUP FOR EASTERN NORTH CAROLINA NATIONAL WEATHER SERVICE NEWPORT/MOREHEAD CITY NC 700 AM EST WED DEC 07 2016 NOTE: "FAIR" INDICATES FEW OR NO CLOUDS BELOW 12,000 FEET WITH NO SIGNIFICANT WEATHER AND/OR OBSTRUCTIONS TO VISIBILITY NCZ015>017-031-032-045>047-102-103-071300- NORTH COAST CITY SKY/WX TMP DP RH WIND PRES REMARKS EDENTON CLOUDY 46 44 90 NW10G16 29.98R ELIZABETH CITY CLOUDY 46 44 93 NW12 29.96R KITTY HAWK CLOUDY 47 47 100 NW9G16 29.91R MANTEO CLOUDY 47 46 97 N14G20 29.93R $$ NCZ045>047-081-094-103-104-071300- CENTRAL COAST CITY SKY/WX TMP DP RH WIND PRES REMARKS FRISCO CLOUDY 48 45 89 NW10G20 29.93R $$ NCZ095-097-098-100-101-071300- SOUTHERN COAST CITY SKY/WX TMP DP RH WIND PRES REMARKS BEAUFORT CLOUDY 48 45 89 NW7G21 29.97R CEDAR ISLAND NOT AVBL JACKSONVILLE NOT AVBL PINEY ISLAND CLOUDY N/A N/A N/A NW13G20 29.96R WILMINGTON CLOUDY 44 43 96 NW12 30.01R $$ NCZ011>013-027>030-043-044-078>080-089-090>093-098-071300- COASTAL PLAIN CITY SKY/WX TMP DP RH WIND PRES REMARKS AHOSKIE CLOUDY 43 42 96 CALM 29.99R CLINTON CLOUDY 43 42 97 W3 30.03R ELIZABETHTOWN CLEAR 42 42 100 CALM 30.02R FOG GOLDSBORO CLEAR 44 44 100 W3 29.99R GREENVILLE CLOUDY 45 43 93 NW6 30.01R HAVELOCK CLOUDY 46 42 86 NW17 29.98R KENANSVILLE CLOUDY 45 43 93 NW6 30.02R KINSTON MOCLDY 45 43 93 NW3 30.01R NEW BERN CLOUDY 46 43 89 NW10 30.00R RICHLANDS CLOUDY 45 43 93 VRB7 30.01R ROCKY MOUNT CLEAR 41 40 96 W3 30.01R WASHINGTON CLOUDY 45 43 92 NW6 29.99R WHITEVILLE CLOUDY 45 43 93 CALM 30.02R $$ AMZ130-135-150-152-154-156-158-170-250-252-270-ANZ085-086-088-633-658-670-071300- MARINE OBSERVATIONS STATION/POSITION TIME TEMP WIND PRES WAVE SWELL AIR SEA DIR/SP/G HT/PER HT/PER (UTC) (F) (DEG/KT/KT) (MB) (FT/S) (FT/S) CHESAPEAKE LIGHT NOT AVBL 64 E VA BEACH 1150 53 59 340/ 25/ 31 1010.6 10/ 6 3/11 DUCK 1148 47 54 310/ 14/ 18 1013.0 2 E DUCK NOT AVBL OREGON INLET 1136 48 56 310/ 17/ 21 1012.8 13E OREGON INLT NOT AVBL HATTERAS CG 1148 48 60 320/ 19/ 24 1013.1 DIAMOND BUOY 1150 54 74 330/ 21/ 27 1012.6 7/ 5 2/11 CAPE LOOKOUT 1100 47 320/ 14/ 18 1013.0 BEAUFORT LAB 1148 46 55 330/ 9/ 13 1013.6 30 SE NEW RVR IN 1108 48 70 330/ 16/ 21 1014.1 30 SE NEW RVR IN NOT AVBL 27 SE WRIGHTSVLE 1108 52 67 320/ 16/ 23 1014.2 5 SE WRIGHTSVLE 1108 45 61 320/ 16/ 23 1014.4 225 S CAPE HAT 1150 72 74 300/ 16/ 17 1013.1 10/ 9 7/ 9 41 SE CHARLESTON 1150 58 74 350/ 8/ 12 1015.6 3/ 8 3/ 8 $$

USA.gov is the U.S. government's official web portal to all federal, state and local government web resources and services.